Location: Newark
(35.7667°N, 5.8000°E)
Time: 10:31:20
(UTC+00:00)

ISS - Visible Passes

Search period start: 21 November 2019 00:00
Search period end: 01 December 2019 00:00
Orbit: 412 x 421 km, 51.6° (Epoch: 21 November)

Date Brightness Start Highest point End Pass type
(mag) Time Alt. Az. Time Alt. Az. Time Alt. Az.
21 Nov -3.1 18:12:59 10° WSW 18:16:06 50° NW 18:16:06 50° NW visible
22 Nov -3.8 17:24:32 10° SW 17:27:52 85° SE 17:29:58 21° NE visible
23 Nov -1.7 18:13:51 10° W 18:16:25 20° NNW 18:16:40 20° NNW visible
24 Nov -2.3 17:24:51 10° W 17:27:53 31° NW 17:30:22 13° NNE visible
25 Nov -0.9 18:16:02 10° NW 18:16:46 11° NNW 18:16:55 10° NNW visible
26 Nov -1.2 17:26:08 10° WNW 17:28:05 15° NNW 17:30:03 10° N visible
